TimeEST,TemperatureF,Dew PointF,Humidity,Sea Level PressureIn,VisibilityMPH,Wind Direction,Wind SpeedMPH,Gust SpeedMPH,PrecipitationIn,Events,Conditions,WindDirDegrees,DateUTC
12:56 AM,8.1,1.0,73,30.32,10.0,NW,5.8,-,N/A,,Overcast,310,2014-02-11 05:56:00
1:03 AM,8.6,1.4,73,30.24,10.0,NW,3.5,-,N/A,,Overcast,310,2014-02-11 06:03:00
1:56 AM,10.0,2.1,70,30.32,10.0,NW,8.1,-,N/A,,Mostly Cloudy,320,2014-02-11 06:56:00
2:06 AM,8.6,1.4,73,30.25,10.0,NW,9.2,-,N/A,,Mostly Cloudy,320,2014-02-11 07:06:00
2:56 AM,9.1,1.0,70,30.32,10.0,NW,9.2,-,N/A,,Mostly Cloudy,310,2014-02-11 07:56:00
3:12 AM,8.6,1.4,73,30.25,10.0,WNW,11.5,-,N/A,,Partly Cloudy,290,2014-02-11 08:12:00
3:56 AM,7.2,1.0,76,30.32,10.0,West,9.2,-,N/A,,Clear,280,2014-02-11 08:56:00
4:56 AM,9.1,1.0,70,30.34,10.0,West,11.5,-,N/A,,Overcast,280,2014-02-11 09:56:00
5:56 AM,9.1,1.0,70,30.35,10.0,West,10.4,-,N/A,,Overcast,280,2014-02-11 10:56:00
6:20 AM,8.6,1.4,73,30.28,10.0,NW,4.6,-,N/A,,Mostly Cloudy,320,2014-02-11 11:20:00
6:56 AM,9.1,2.1,73,30.36,10.0,WNW,12.7,-,N/A,,Mostly Cloudy,300,2014-02-11 11:56:00
7:56 AM,8.1,1.0,73,30.40,10.0,WNW,9.2,-,N/A,,Overcast,300,2014-02-11 12:56:00
8:56 AM,9.1,2.1,73,30.41,10.0,West,9.2,-,N/A,,Mostly Cloudy,280,2014-02-11 13:56:00
9:56 AM,11.1,4.1,73,30.42,7.0,NW,10.4,-,0.00,Snow,Light Snow Showers,310,2014-02-11 14:56:00
10:56 AM,12.0,3.0,67,30.43,10.0,NNW,10.4,-,0.00,,Mostly Cloudy,330,2014-02-11 15:56:00
11:56 AM,13.1,5.0,70,30.43,5.0,NW,12.7,-,0.00,Snow,Light Snow Showers,320,2014-02-11 16:56:00
12:56 PM,14.0,3.0,62,30.42,10.0,WNW,15.0,-,0.00,,Mostly Cloudy,300,2014-02-11 17:56:00
1:56 PM,14.0,0.1,54,30.40,10.0,NNW,10.4,-,0.00,Snow,Light Snow Showers,330,2014-02-11 18:56:00
2:56 PM,14.0,3.0,62,30.42,10.0,NW,15.0,18.4,0.00,,Mostly Cloudy,310,2014-02-11 19:56:00
3:56 PM,14.0,2.1,59,30.44,10.0,NW,10.4,-,0.00,,Mostly Cloudy,310,2014-02-11 20:56:00
4:56 PM,14.0,0.1,54,30.45,10.0,NW,10.4,-,0.00,,Mostly Cloudy,310,2014-02-11 21:56:00
5:56 PM,13.1,4.1,67,30.47,10.0,NNW,8.1,-,0.00,Snow,Light Snow,340,2014-02-11 22:56:00
6:56 PM,11.1,5.0,76,30.49,10.0,North,3.5,-,0.00,Snow,Light Snow,350,2014-02-11 23:56:00
7:56 PM,11.1,6.1,80,30.51,5.0,North,6.9,-,0.00,Snow,Light Snow,360,2014-02-12 00:56:00
8:56 PM,10.0,7.2,88,30.52,4.0,WNW,4.6,-,0.00,Snow,Light Snow,300,2014-02-12 01:56:00
9:56 PM,9.1,3.0,76,30.53,10.0,WNW,8.1,-,0.00,Snow,Light Snow,290,2014-02-12 02:56:00
10:56 PM,8.1,1.0,73,30.54,10.0,West,6.9,-,0.00,,Overcast,280,2014-02-12 03:56:00
11:56 PM,3.0,-0.9,84,30.53,10.0,Calm,Calm,-,0.00,,Overcast,0,2014-02-12 04:56:00